User: anonymous   Login
Location: Unspecified
(0.0000°N, 0.0000°E)
Time: 13:12:43
(UTC+00:00)
Language:

M3MSAT - Orbit

View from above orbital plane
View from above orbital plane
View from above satellite
View from above satellite

Ground track
Ground track

The orbit data is extracted from the following two-line orbital elements,

1 41605U 16040G   21016.13866043  .00000507  00000-0  25371-4 0  9992
2 41605  97.2855  72.0278 0012472 163.8020 196.3618 15.21675601253633
Epoch (UTC): 16 January 2021 03:19:40
Eccentricity: 0.0012472
inclination: 97.2855°
perigee height: 492 km
apogee height: 509 km
right ascension of ascending node: 72.0278°
argument of perigee: 163.8020°
revolutions per day: 15.21675601
mean anomaly at epoch: 196.3618°
orbit number at epoch: 25363

The dashed part of the orbit path shows where the satellite is in the earth's shadow,  

DLR